"Period start","avg(HW err(1)/warn(2) (#))","avg(Visibility (m))","avg(Weather code (#))","avg(Precip intensity (mm/h))","min(HW err(1)/warn(2) (#))","max(HW err(1)/warn(2) (#))","std(HW err(1)/warn(2) (#))","med(HW err(1)/warn(2) (#))","min(Visibility (m))","max(Visibility (m))","std(Visibility (m))","med(Visibility (m))","min(Weather code (#))","max(Weather code (#))","std(Weather code (#))","med(Weather code (#))","min(Precip intensity (mm/h))","max(Precip intensity (mm/h))","std(Precip intensity (mm/h))","med(Precip intensity (mm/h))"
2013-08-12 00:00:00,0,18220,61,2.73,0,0,0,0,14138,23630,2888,17365,61,61,0,61,1.00,6.85,1.98,1.58
2013-08-12 00:10:00,0,17797,56,0.78,0,0,0,0,15637,21155,1540,17402,52,61,4,52,0.50,1.10,0.20,0.78
2013-08-12 00:20:00,0,19352,51,0.35,0,0,0,0,16793,22881,2077,19035,51,52,0,51,0.05,0.85,0.27,0.28
2013-08-12 00:30:00,0,20758,56,0.26,0,0,0,0,18683,24337,1797,20178,51,61,5,56,0.00,1.25,0.36,0.10
2013-08-12 00:40:00,0,21345,5,0.00,0,0,0,0,18000,24419,1656,21448,0,51,15,0,0.00,0.00,0.00,0.00
2013-08-12 00:50:00,0,18055,45,1.29,0,0,0,0,15511,23585,2226,17972,0,61,24,61,0.00,5.00,1.47,0.68
2013-08-12 01:00:00,0,14626,61,3.33,0,0,0,0,11268,17474,1867,14729,61,62,0,61,0.75,10.15,3.04,1.90
2013-08-12 01:10:00,0,13188,61,5.09,0,0,0,0,10034,17099,2317,12982,61,62,0,61,0.55,18.35,5.47,3.00
2013-08-12 01:20:00,0,19218,58,0.30,0,0,0,0,15391,23806,3006,18062,51,61,5,61,0.00,1.20,0.37,0.12
2013-08-12 01:30:00,0,19394,51,0.26,0,0,0,0,16130,23470,1991,19692,51,51,0,51,0.00,0.60,0.23,0.23
2013-08-12 01:40:00,0,20901,51,0.13,0,0,0,0,17282,25132,2263,21000,51,51,0,51,0.00,0.55,0.15,0.08
2013-08-12 01:50:00,0,24495,5,0.01,0,0,0,0,19568,31289,3042,23712,0,51,15,0,0.00,0.05,0.02,0.00
2013-08-12 02:00:00,0,26035,0,0.00,0,0,0,0,22893,30173,1793,26228,0,0,0,0,0.00,0.00,0.00,0.00
2013-08-12 02:10:00,0,24241,0,0.00,0,0,0,0,19556,31285,3257,23252,0,0,0,0,0.00,0.00,0.00,0.00
2013-08-12 02:20:00,0,24394,0,0.00,0,0,0,0,19897,27359,2005,24475,0,0,0,0,0.00,0.00,0.00,0.00
2013-08-12 02:30:00,0,28073,0,0.00,0,0,0,0,14626,36185,6112,30010,0,0,0,0,0.00,0.00,0.00,0.00
2013-08-12 02:40:00,0,9720,0,0.00,0,0,0,0,7231,15240,2420,9580,0,0,0,0,0.00,0.00,0.00,0.00
2013-08-12 02:50:00,0,24385,0,0.00,0,0,0,0,18655,30579,4013,24026,0,0,0,0,0.00,0.00,0.00,0.00
2013-08-12 03:00:00,0,13984,0,0.00,0,0,0,0,7885,22176,5005,14010,0,0,0,0,0.00,0.00,0.00,0.00
2013-08-12 03:10:00,0,7960,6,0.00,0,0,0,0,7642,8344,243,7882,0,10,5,10,0.00,0.00,0.00,0.00
2013-08-12 03:20:00,0,7951,10,0.00,0,0,0,0,7394,8653,336,7943,10,10,0,10,0.00,0.00,0.00,0.00
2013-08-12 03:30:00,0,7866,10,0.00,0,0,0,0,7419,8330,267,7909,10,10,0,10,0.00,0.00,0.00,0.00
2013-08-12 03:40:00,0,7864,10,0.00,0,0,0,0,7256,8547,373,7961,10,10,0,10,0.00,0.00,0.00,0.00
2013-08-12 03:50:00,0,8335,10,0.00,0,0,0,0,7805,8896,340,8272,10,10,0,10,0.00,0.00,0.00,0.00
2013-08-12 04:00:00,0,8766,10,0.00,0,0,0,0,8153,9475,356,8800,10,10,0,10,0.00,0.00,0.00,0.00
2013-08-12 04:10:00,0,8894,10,0.00,0,0,0,0,8318,9322,324,8896,10,10,0,10,0.00,0.00,0.00,0.00
2013-08-12 04:20:00,0,9526,10,0.00,0,0,0,0,9169,9957,265,9504,10,10,0,10,0.00,0.00,0.00,0.00
2013-08-12 04:30:00,0,10442,10,0.00,0,0,0,0,9707,11455,574,10296,10,10,0,10,0.00,0.00,0.00,0.00
2013-08-12 04:40:00,0,9559,10,0.00,0,0,0,0,8609,11137,800,9310,10,10,0,10,0.00,0.00,0.00,0.00
2013-08-12 04:50:00,0,9938,10,0.00,0,0,0,0,9305,10911,509,9868,10,10,0,10,0.00,0.00,0.00,0.00
2013-08-12 05:00:00,0,9848,10,0.00,0,0,0,0,9118,10686,443,9864,10,10,0,10,0.00,0.00,0.00,0.00
2013-08-12 05:10:00,0,9918,10,0.00,0,0,0,0,9105,10297,352,10101,10,10,0,10,0.00,0.00,0.00,0.00
2013-08-12 05:20:00,0,8990,10,0.00,0,0,0,0,8112,9874,483,9078,10,10,0,10,0.00,0.00,0.00,0.00
2013-08-12 05:30:00,0,8353,10,0.00,0,0,0,0,8108,8835,210,8294,10,10,0,10,0.00,0.00,0.00,0.00
2013-08-12 05:40:00,0,8458,10,0.00,0,0,0,0,7843,8926,419,8573,10,10,0,10,0.00,0.00,0.00,0.00
2013-08-12 05:50:00,0,8549,10,0.00,0,0,0,0,7640,9281,429,8558,10,10,0,10,0.00,0.00,0.00,0.00
2013-08-12 06:00:00,0,9121,10,0.00,0,0,0,0,8767,9574,287,9068,10,10,0,10,0.00,0.00,0.00,0.00
2013-08-12 06:10:00,0,9138,10,0.00,0,0,0,0,8616,9764,422,9058,10,10,0,10,0.00,0.00,0.00,0.00
2013-08-12 06:20:00,0,9421,10,0.00,0,0,0,0,8555,10147,469,9537,10,10,0,10,0.00,0.00,0.00,0.00
2013-08-12 06:30:00,0,9819,10,0.00,0,0,0,0,9417,10370,267,9810,10,10,0,10,0.00,0.00,0.00,0.00
2013-08-12 06:40:00,0,11193,10,0.00,0,0,0,0,9968,12476,810,10976,10,10,0,10,0.00,0.00,0.00,0.00
2013-08-12 06:50:00,0,10862,10,0.00,0,0,0,0,9895,12356,687,10734,10,10,0,10,0.00,0.00,0.00,0.00
2013-08-12 07:00:00,0,10262,10,0.00,0,0,0,0,9161,11361,674,10484,10,10,0,10,0.00,0.00,0.00,0.00
2013-08-12 07:10:00,0,10059,7,0.00,0,0,0,0,9069,10646,455,10176,4,10,3,7,0.00,0.00,0.00,0.00
2013-08-12 07:20:00,0,9578,4,0.00,0,0,0,0,8862,10542,424,9550,4,4,0,4,0.00,0.00,0.00,0.00
2013-08-12 07:30:00,0,9267,4,0.00,0,0,0,0,8948,9948,265,9244,4,4,0,4,0.00,0.00,0.00,0.00
2013-08-12 07:40:00,0,9029,4,0.00,0,0,0,0,8321,9805,523,8993,4,4,0,4,0.00,0.00,0.00,0.00
2013-08-12 07:50:00,0,8820,4,0.00,0,0,0,0,8255,9357,326,8764,4,4,0,4,0.00,0.00,0.00,0.00
2013-08-12 08:00:00,0,9121,4,0.00,0,0,0,0,8439,10038,498,9041,4,4,0,4,0.00,0.00,0.00,0.00
2013-08-12 08:10:00,0,8821,4,0.00,0,0,0,0,8400,9066,175,8844,4,4,0,4,0.00,0.00,0.00,0.00
2013-08-12 08:20:00,0,8692,4,0.00,0,0,0,0,8299,9251,328,8569,4,4,0,4,0.00,0.00,0.00,0.00
2013-08-12 08:30:00,0,8667,4,0.00,0,0,0,0,8014,9181,346,8727,4,4,0,4,0.00,0.00,0.00,0.00
2013-08-12 08:40:00,0,8493,4,0.00,0,0,0,0,8225,8861,172,8471,4,4,0,4,0.00,0.00,0.00,0.00
2013-08-12 08:50:00,0,8769,4,0.00,0,0,0,0,8261,9555,335,8756,4,4,0,4,0.00,0.00,0.00,0.00
2013-08-12 09:00:00,0,8639,4,0.00,0,0,0,0,8261,9057,212,8676,4,4,0,4,0.00,0.00,0.00,0.00
2013-08-12 09:10:00,0,8597,4,0.00,0,0,0,0,7546,9402,475,8618,4,4,0,4,0.00,0.00,0.00,0.00
2013-08-12 09:20:00,0,8929,4,0.00,0,0,0,0,8576,9261,176,8898,4,4,0,4,0.00,0.00,0.00,0.00
2013-08-12 09:30:00,0,8749,5,0.00,0,0,0,0,8546,8915,112,8760,4,10,2,4,0.00,0.00,0.00,0.00
2013-08-12 09:40:00,0,8982,10,0.00,0,0,0,0,8676,9246,182,8985,10,10,0,10,0.00,0.00,0.00,0.00
2013-08-12 09:50:00,0,9849,10,0.00,0,0,0,0,8908,10601,470,9988,10,10,0,10,0.00,0.00,0.00,0.00
2013-08-12 10:00:00,0,10562,10,0.00,0,0,0,0,10015,11091,302,10673,10,10,0,10,0.00,0.00,0.00,0.00
2013-08-12 10:10:00,0,10652,10,0.00,0,0,0,0,10144,11404,359,10640,10,10,0,10,0.00,0.00,0.00,0.00
2013-08-12 10:20:00,0,10485,10,0.00,0,0,0,0,9741,11218,511,10556,10,10,0,10,0.00,0.00,0.00,0.00
2013-08-12 10:30:00,0,10130,10,0.00,0,0,0,0,9413,10913,406,10198,10,10,0,10,0.00,0.00,0.00,0.00
2013-08-12 10:40:00,0,10277,10,0.00,0,0,0,0,9811,10623,299,10372,10,10,0,10,0.00,0.00,0.00,0.00
2013-08-12 10:50:00,0,10255,10,0.00,0,0,0,0,9857,10636,271,10240,10,10,0,10,0.00,0.00,0.00,0.00
2013-08-12 11:00:00,0,10163,10,0.00,0,0,0,0,9857,10525,247,10160,10,10,0,10,0.00,0.00,0.00,0.00
2013-08-12 11:10:00,0,9868,10,0.00,0,0,0,0,9371,10286,293,9834,10,10,0,10,0.00,0.00,0.00,0.00
2013-08-12 11:20:00,0,9820,10,0.00,0,0,0,0,9394,10501,345,9822,10,10,0,10,0.00,0.00,0.00,0.00
2013-08-12 11:30:00,0,9879,10,0.00,0,0,0,0,9479,10334,241,9848,10,10,0,10,0.00,0.00,0.00,0.00
2013-08-12 11:40:00,0,9974,10,0.00,0,0,0,0,9475,10448,274,9924,10,10,0,10,0.00,0.00,0.00,0.00
2013-08-12 11:50:00,0,9875,10,0.00,0,0,0,0,9409,10305,286,10000,10,10,0,10,0.00,0.00,0.00,0.00
2013-08-12 12:00:00,0,9706,10,0.00,0,0,0,0,9284,10123,225,9722,10,10,0,10,0.00,0.00,0.00,0.00
2013-08-12 12:10:00,0,9638,10,0.00,0,0,0,0,9259,10028,267,9566,10,10,0,10,0.00,0.00,0.00,0.00
2013-08-12 12:20:00,0,9502,10,0.00,0,0,0,0,9165,9763,198,9494,10,10,0,10,0.00,0.00,0.00,0.00
2013-08-12 12:30:00,0,9750,10,0.00,0,0,0,0,9465,9874,113,9782,10,10,0,10,0.00,0.00,0.00,0.00
2013-08-12 12:40:00,0,10029,10,0.00,0,0,0,0,9641,10362,218,10007,10,10,0,10,0.00,0.00,0.00,0.00
2013-08-12 12:50:00,0,10210,10,0.00,0,0,0,0,9937,10482,205,10193,10,10,0,10,0.00,0.00,0.00,0.00
2013-08-12 13:00:00,0,9772,10,0.00,0,0,0,0,9448,10229,292,9678,10,10,0,10,0.00,0.00,0.00,0.00
2013-08-12 13:10:00,0,9485,10,0.00,0,0,0,0,9051,9822,208,9467,10,10,0,10,0.00,0.00,0.00,0.00
2013-08-12 13:20:00,0,9354,10,0.00,0,0,0,0,9097,9893,233,9363,10,10,0,10,0.00,0.00,0.00,0.00
2013-08-12 13:30:00,0,9112,10,0.00,0,0,0,0,8849,9395,183,9045,10,10,0,10,0.00,0.00,0.00,0.00
2013-08-12 13:40:00,0,9021,10,0.00,0,0,0,0,8716,9345,158,9017,10,10,0,10,0.00,0.00,0.00,0.00
2013-08-12 13:50:00,0,9097,10,0.00,0,0,0,0,8704,9796,327,8990,10,10,0,10,0.00,0.00,0.00,0.00
2013-08-12 14:00:00,0,9080,10,0.00,0,0,0,0,8681,9552,233,9075,10,10,0,10,0.00,0.00,0.00,0.00
2013-08-12 14:10:00,0,8922,10,0.00,0,0,0,0,8658,9256,170,8872,10,10,0,10,0.00,0.00,0.00,0.00
2013-08-12 14:20:00,0,8335,10,0.00,0,0,0,0,7373,8939,521,8376,10,10,0,10,0.00,0.00,0.00,0.00
2013-08-12 14:30:00,0,8807,10,0.00,0,0,0,0,8501,9249,229,8763,10,10,0,10,0.00,0.00,0.00,0.00
2013-08-12 14:40:00,0,8837,10,0.00,0,0,0,0,8558,9069,147,8822,10,10,0,10,0.00,0.00,0.00,0.00
2013-08-12 14:50:00,0,8821,10,0.00,0,0,0,0,8475,9168,222,8858,10,10,0,10,0.00,0.00,0.00,0.00
2013-08-12 15:00:00,0,8474,10,0.00,0,0,0,0,8166,8871,221,8476,10,10,0,10,0.00,0.00,0.00,0.00
2013-08-12 15:10:00,0,8389,10,0.00,0,0,0,0,8129,8615,181,8416,10,10,0,10,0.00,0.00,0.00,0.00
2013-08-12 15:20:00,0,8764,10,0.00,0,0,0,0,8479,8928,147,8803,10,10,0,10,0.00,0.00,0.00,0.00
2013-08-12 15:30:00,0,8773,10,0.00,0,0,0,0,8542,9046,185,8740,10,10,0,10,0.00,0.00,0.00,0.00
2013-08-12 15:40:00,0,8150,10,0.00,0,0,0,0,7726,8636,294,8143,10,10,0,10,0.00,0.00,0.00,0.00
2013-08-12 15:50:00,0,8255,10,0.00,0,0,0,0,7832,8669,278,8203,10,10,0,10,0.00,0.00,0.00,0.00
2013-08-12 16:00:00,0,8681,10,0.00,0,0,0,0,8290,8979,181,8655,10,10,0,10,0.00,0.00,0.00,0.00
2013-08-12 16:10:00,0,8512,10,0.00,0,0,0,0,8089,8980,291,8566,10,10,0,10,0.00,0.00,0.00,0.00
2013-08-12 16:20:00,0,7672,10,0.00,0,0,0,0,7330,8107,272,7554,10,10,0,10,0.00,0.00,0.00,0.00
2013-08-12 16:30:00,0,7772,10,0.00,0,0,0,0,6776,8413,498,7796,10,10,0,10,0.00,0.00,0.00,0.00
2013-08-12 16:40:00,0,8278,10,0.00,0,0,0,0,7965,8601,177,8248,10,10,0,10,0.00,0.00,0.00,0.00
2013-08-12 16:50:00,0,8291,10,0.00,0,0,0,0,7869,8699,253,8354,10,10,0,10,0.00,0.00,0.00,0.00
2013-08-12 17:00:00,0,8261,10,0.00,0,0,0,0,7658,8884,322,8254,10,10,0,10,0.00,0.00,0.00,0.00
2013-08-12 17:10:00,0,8368,10,0.00,0,0,0,0,8043,8784,228,8324,10,10,0,10,0.00,0.00,0.00,0.00
2013-08-12 17:20:00,0,8174,10,0.00,0,0,0,0,7175,8718,486,8392,10,10,0,10,0.00,0.00,0.00,0.00
2013-08-12 17:30:00,0,8096,10,0.00,0,0,0,0,7467,8577,294,8116,10,10,0,10,0.00,0.00,0.00,0.00
2013-08-12 17:40:00,0,7986,10,0.00,0,0,0,0,7559,8563,290,7924,10,10,0,10,0.00,0.00,0.00,0.00
2013-08-12 17:50:00,0,7659,10,0.00,0,0,0,0,6096,8514,798,7820,10,10,0,10,0.00,0.00,0.00,0.00
2013-08-12 18:00:00,0,7919,10,0.00,0,0,0,0,7087,8381,334,8008,10,10,0,10,0.00,0.00,0.00,0.00
2013-08-12 18:10:00,0,7639,10,0.00,0,0,0,0,7174,8433,368,7622,10,10,0,10,0.00,0.00,0.00,0.00
2013-08-12 18:20:00,0,8458,10,0.00,0,0,0,0,7629,8813,309,8508,10,10,0,10,0.00,0.00,0.00,0.00
2013-08-12 18:30:00,0,8427,10,0.00,0,0,0,0,8019,8723,221,8438,10,10,0,10,0.00,0.00,0.00,0.00
2013-08-12 18:40:00,0,7644,10,0.00,0,0,0,0,6785,8653,702,7470,10,10,0,10,0.00,0.00,0.00,0.00
2013-08-12 18:50:00,0,7002,10,0.00,0,0,0,0,6601,7333,190,7020,10,10,0,10,0.00,0.00,0.00,0.00
2013-08-12 19:00:00,0,7444,10,0.00,0,0,0,0,7065,7989,302,7377,10,10,0,10,0.00,0.00,0.00,0.00
2013-08-12 19:10:00,0,8110,10,0.00,0,0,0,0,7841,8444,203,8106,10,10,0,10,0.00,0.00,0.00,0.00
2013-08-12 19:20:00,0,8067,10,0.00,0,0,0,0,7736,8362,149,8046,10,10,0,10,0.00,0.00,0.00,0.00
2013-08-12 19:30:00,0,7786,10,0.00,0,0,0,0,7202,8208,281,7859,10,10,0,10,0.00,0.00,0.00,0.00
2013-08-12 19:40:00,0,7293,10,0.00,0,0,0,0,6736,7795,359,7406,10,10,0,10,0.00,0.00,0.00,0.00
2013-08-12 19:50:00,0,7459,10,0.00,0,0,0,0,7212,7787,165,7455,10,10,0,10,0.00,0.00,0.00,0.00
2013-08-12 20:00:00,0,7456,10,0.00,0,0,0,0,7032,7923,250,7445,10,10,0,10,0.00,0.00,0.00,0.00
2013-08-12 20:10:00,0,7820,10,0.00,0,0,0,0,7397,8597,379,7620,10,10,0,10,0.00,0.00,0.00,0.00
2013-08-12 20:20:00,0,8322,10,0.00,0,0,0,0,8045,8675,208,8294,10,10,0,10,0.00,0.00,0.00,0.00
2013-08-12 20:30:00,0,8242,10,0.00,0,0,0,0,7812,8685,321,8295,10,10,0,10,0.00,0.00,0.00,0.00
2013-08-12 20:40:00,0,8460,10,0.00,0,0,0,0,8172,8613,148,8510,10,10,0,10,0.00,0.00,0.00,0.00
2013-08-12 20:50:00,0,8516,10,0.00,0,0,0,0,8041,8892,266,8510,10,10,0,10,0.00,0.00,0.00,0.00
2013-08-12 21:00:00,0,8278,10,0.00,0,0,0,0,7992,8604,182,8238,10,10,0,10,0.00,0.00,0.00,0.00
2013-08-12 21:10:00,0,8060,10,0.00,0,0,0,0,7890,8351,135,8049,10,10,0,10,0.00,0.00,0.00,0.00
2013-08-12 21:20:00,0,7941,10,0.00,0,0,0,0,7673,8255,215,7926,10,10,0,10,0.00,0.00,0.00,0.00
2013-08-12 21:30:00,0,7781,10,0.00,0,0,0,0,7447,8224,259,7738,10,10,0,10,0.00,0.00,0.00,0.00
2013-08-12 21:40:00,0,7824,10,0.00,0,0,0,0,7282,8033,207,7832,10,10,0,10,0.00,0.00,0.00,0.00
2013-08-12 21:50:00,0,6948,10,0.00,0,0,0,0,6183,7459,367,6968,10,10,0,10,0.00,0.00,0.00,0.00
2013-08-12 22:00:00,0,6742,10,0.00,0,0,0,0,5845,7595,599,6684,10,10,0,10,0.00,0.00,0.00,0.00
2013-08-12 22:10:00,0,6610,10,0.00,0,0,0,0,5284,7348,709,6959,10,10,0,10,0.00,0.00,0.00,0.00
2013-08-12 22:20:00,0,7089,10,0.00,0,0,0,0,6647,7877,401,7037,10,10,0,10,0.00,0.00,0.00,0.00
2013-08-12 22:30:00,0,7450,10,0.00,0,0,0,0,6943,7927,327,7464,10,10,0,10,0.00,0.00,0.00,0.00
2013-08-12 22:40:00,0,7987,10,0.00,0,0,0,0,7732,8292,162,7952,10,10,0,10,0.00,0.00,0.00,0.00
2013-08-12 22:50:00,0,7899,10,0.00,0,0,0,0,7747,8142,132,7878,10,10,0,10,0.00,0.00,0.00,0.00
2013-08-12 23:00:00,0,7907,10,0.00,0,0,0,0,7435,8178,204,7960,10,10,0,10,0.00,0.00,0.00,0.00
2013-08-12 23:10:00,0,7610,10,0.00,0,0,0,0,7230,8195,369,7462,10,10,0,10,0.00,0.00,0.00,0.00
2013-08-12 23:20:00,0,7486,10,0.00,0,0,0,0,7235,7604,130,7556,10,10,0,10,0.00,0.00,0.00,0.00
2013-08-12 23:30:00,0,7586,10,0.00,0,0,0,0,7176,7817,180,7576,10,10,0,10,0.00,0.00,0.00,0.00
2013-08-12 23:40:00,0,7602,10,0.00,0,0,0,0,7102,8014,230,7613,10,10,0,10,0.00,0.00,0.00,0.00
2013-08-12 23:50:00,0,7366,10,0.00,0,0,0,0,6946,7878,282,7349,10,10,0,10,0.00,0.00,0.00,0.00
